{"data":{"norad_id":56553,"intl_designator":"2023-065BC","name":"STARLINK-6074","alt_names":[],"object_type":"PAYLOAD","status":"ACTIVE","operator":null,"country":"US","launch_date":"2023-05-14","launch_site_code":"AFETR","launch_vehicle":null,"mission":null,"orbit_class":"UNKNOWN","rcs_meters":null,"size_class":null,"mass_kg":null,"dimensions":null,"purposes":["comms"],"wikipedia_slug":null,"has_3d_model":false,"image_url":null,"decayed_at":null,"tle_current":{"epoch":"2026-09-20T05:02:45.279456Z","epoch_age_seconds":139992,"freshness":"FRESH","line1":"1 56553U 23065BC  26263.21024629 -.00000394  00000+0 -48035-5 0  9997","line2":"2 56553  43.0010 204.8486 0000728 257.0673 103.0097 15.27576096186220","mean_motion":15.27576096,"eccentricity":7.28e-5,"inclination_deg":43.001,"raan_deg":204.8486,"arg_perigee_deg":257.0673,"mean_anomaly_deg":103.0097,"bstar":-4.8035e-6,"rev_number":18622,"period_min":94.266989629563,"perigee_km":482.56129084618,"apogee_km":483.56028124383,"semimajor_km":6861.197786045,"source":"CELESTRAK","updated_at":"2026-09-21T09:00:33.479389Z"}}}